Location: Avully
(45.9633°N, 6.0228°E)
Time: 21:45:59
(UTC+00:00)

Cosmos 2360 Rocket - Pass Details

Date: 15 August 2024
Orbit: 834 x 843 km, 71.0° (Epoch: 10 September)

Event Time Altitude Azimuth Distance (km) Brightness Sun altitude
Exits shadow 21:55:05 14° 72° (ENE) 2,194 4.2 -25.8°
Drops below altitude 10° 21:56:26 10° 60° (ENE) 2,466 4.6 -25.9°
Sets 21:59:41 0° 41° (NE) 3,405 5.6 -26.2°
